This is the latest recevied weather packets stored in our database for station/object K1WJY. If no packets are shown the sender has not sent any weather packets the latest 10 day(s).
| Time | Temp. | Humidity | Pressure | Rain* | Wind** | Luminosity | Snow |
|---|---|---|---|---|---|---|---|
| 1787583243 | 20° C | 99% | 1015.9 hPa | 0 mm | - | 287 W/m² | - |
| 1787582938 | 19.44° C | 99% | 1016.1 hPa | 0 mm | - | 227 W/m² | - |
| 1787582633 | 19.44° C | 99% | 1016 hPa | 0 mm | - | 196 W/m² | - |
| 1787582329 | 19.44° C | 99% | 1016 hPa | 0 mm | - | 206 W/m² | - |
| 1787582028 | 19.44° C | 99% | 1016.1 hPa | 0 mm | - | 173 W/m² | - |
| 1787581724 | 19.44° C | 99% | 1016 hPa | 0 mm | - | 149 W/m² | - |
| 1787581423 | 19.44° C | 99% | 1016.1 hPa | 0 mm | - | 142 W/m² | - |
| 1787581118 | 19.44° C | 99% | 1016.2 hPa | 0 mm | - | 166 W/m² | - |
| 1787580814 | 19.44° C | 99% | 1016.1 hPa | 0 mm | - | 143 W/m² | - |
| 1787580511 | 18.89° C | 99% | 1016 hPa | 0 mm | - | 136 W/m² | - |
| 1787580210 | 18.89° C | 99% | 1016 hPa | 0 mm | - | 120 W/m² | - |
| 1787579900 | 18.89° C | 99% | 1015.9 hPa | 0 mm | - | 137 W/m² | - |
| 1787579600 | 18.89° C | 99% | 1016 hPa | 0 mm | - | 134 W/m² | - |
| 1787579295 | 18.89° C | 99% | 1016.2 hPa | 0 mm | - | 121 W/m² | - |
| 1787578990 | 18.89° C | 99% | 1016.1 hPa | 0 mm | - | 127 W/m² | - |
| 1787578687 | 18.89° C | 99% | 1015.9 hPa | 0 mm | - | 134 W/m² | - |
| 1787578387 | 18.89° C | 99% | 1016.1 hPa | 0 mm | - | 116 W/m² | - |
| 1787578086 | 18.89° C | 99% | 1016.3 hPa | 0 mm | - | 88 W/m² | - |
| 1787577781 | 18.89° C | 99% | 1016 hPa | 0 mm | - | 92 W/m² | - |
| 1787577477 | 18.33° C | 99% | 1016.2 hPa | 0 mm | - | 97 W/m² | - |
| 1787577174 | 18.33° C | 99% | 1016.1 hPa | 0 mm | - | 107 W/m² | - |
| 1787576869 | 18.33° C | 99% | 1016.1 hPa | 0 mm | - | 95 W/m² | - |
| 1787576564 | 18.33° C | 99% | 1015.9 hPa | 0 mm | - | 104 W/m² | - |
| 1787576261 | 18.33° C | 99% | 1016.2 hPa | 0 mm | - | 102 W/m² | - |
| 1787575956 | 18.33° C | 99% | 1016.1 hPa | 0 mm | - | 117 W/m² | - |
* Rain latest hour (hover to see other rain measurements)
** Current wind speed in m/s (hover to see current wind gust speed)